| time (UTC) | temp F | wind direction | speed MPH | gust MPH | rain 1hr in | rain 24hr in | rain mn in | humidity % | barometer mb |
| 20260902102253 | 82 | 76 | 2.0 | 7.0 | 0.00 | 0.00 | 0.00 | 42 | 1021.2 |
| 20260902101753 | 82 | 25 | 5.0 | 10.0 | 0.00 | 0.00 | 0.00 | 43 | 1021.2 |
| 20260902101253 | 82 | 82 | 2.0 | 10.0 | 0.00 | 0.00 | 0.00 | 43 | 1021.2 |
| 20260902100754 | 82 | 96 | 6.0 | 7.0 | 0.00 | 0.00 | 0.00 | 43 | 1021.3 |
| 20260902100735 | 82 | 48 | 6.0 | 9.0 | 0.00 | 0.00 | 0.00 | 42 | 1021.3 |
| 20260902095753 | 82 | 62 | 5.0 | 9.0 | 0.00 | 0.00 | 0.00 | 42 | 1021.3 |
| 20260902095510 | 82 | 42 | 5.0 | 7.0 | 0.00 | 0.00 | 0.00 | 42 | 1021.3 |
| 20260902094752 | 82 | 75 | 5.0 | 7.0 | 0.00 | 0.00 | 0.00 | 43 | 1021.3 |
| 20260902094252 | 82 | 72 | 3.0 | 6.0 | 0.00 | 0.00 | 0.00 | 42 | 1021.3 |
| 20260902093753 | 81 | 69 | 3.0 | 9.0 | 0.00 | 0.00 | 0.00 | 44 | 1021.4 |
| 20260902093252 | 80 | 86 | 6.0 | 10.0 | 0.00 | 0.00 | 0.00 | 45 | 1021.4 |
| 20260902092752 | 80 | 75 | 5.0 | 10.0 | 0.00 | 0.00 | 0.00 | 45 | 1021.5 |
| 20260902092251 | 79 | 0 | 4.0 | 9.0 | 0.00 | 0.00 | 0.00 | 45 | 1021.4 |
| 20260902091752 | 78 | 0 | 4.0 | 9.0 | 0.00 | 0.00 | 0.00 | 45 | 1021.4 |
| 20260902091252 | 78 | 0 | 4.0 | 5.0 | 0.00 | 0.00 | 0.00 | 46 | 1021.5 |
| 20260902091010 | 78 | 0 | 3.0 | 5.0 | 0.00 | 0.00 | 0.00 | 46 | 1021.5 |
| 20260902090252 | 78 | 0 | 3.0 | 7.0 | 0.00 | 0.00 | 0.00 | 46 | 1021.6 |
| 20260902090012 | 78 | 0 | 2.0 | 7.0 | 0.00 | 0.00 | 0.00 | 46 | 1021.6 |
| 20260902085251 | 78 | 0 | 5.0 | 7.0 | 0.00 | 0.00 | 0.00 | 46 | 1021.5 |
| 20260902084751 | 78 | 0 | 5.0 | 9.0 | 0.00 | 0.00 | 0.00 | 46 | 1021.5 |
| 20260902084251 | 78 | 0 | 4.0 | 9.0 | 0.00 | 0.00 | 0.00 | 46 | 1021.5 |
| 20260902083752 | 78 | 0 | 3.0 | 7.0 | 0.00 | 0.00 | 0.00 | 46 | 1021.5 |
| 20260902083251 | 78 | 0 | 6.0 | 9.0 | 0.00 | 0.00 | 0.00 | 45 | 1021.4 |
| 20260902082750 | 77 | 0 | 5.0 | 9.0 | 0.00 | 0.00 | 0.00 | 45 | 1021.4 |
| 20260902082250 | 78 | 0 | 4.0 | 9.0 | 0.00 | 0.00 | 0.00 | 44 | 1021.3 |
| 20260902081751 | 78 | 0 | 4.0 | 5.0 | 0.00 | 0.00 | 0.00 | 44 | 1021.3 |
| 20260902081250 | 78 | 0 | 2.0 | 6.0 | 0.00 | 0.00 | 0.00 | 43 | 1021.3 |
| 20260902080750 | 77 | 0 | 2.0 | 6.0 | 0.00 | 0.00 | 0.00 | 43 | 1021.3 |
| 20260902080250 | 77 | 0 | 3.0 | 5.0 | 0.00 | 0.00 | 0.00 | 44 | 1021.3 |
| 20260902075750 | 77 | 0 | 2.0 | 4.0 | 0.00 | 0.00 | 0.00 | 44 | 1021.2 |
| 20260902075731 | 77 | 0 | 2.0 | 4.0 | 0.00 | 0.00 | 0.00 | 44 | 1021.1 |
| 20260902074749 | 77 | 0 | 3.0 | 6.0 | 0.00 | 0.00 | 0.00 | 43 | 1021.2 |
| 20260902074249 | 77 | 0 | 3.0 | 6.0 | 0.00 | 0.00 | 0.00 | 43 | 1021.1 |
| 20260902073750 | 77 | 0 | 3.0 | 5.0 | 0.00 | 0.00 | 0.00 | 43 | 1021.2 |
| 20260902073511 | 77 | 0 | 3.0 | 5.0 | 0.00 | 0.00 | 0.00 | 43 | 1021.1 |
| 20260902072749 | 76 | 0 | 2.0 | 4.0 | 0.00 | 0.00 | 0.00 | 42 | 1021.1 |
| 20260902072515 | 76 | 0 | 2.0 | 4.0 | 0.00 | 0.00 | 0.00 | 41 | 1021.1 |
| 20260902071749 | 76 | 0 | 3.0 | 4.0 | 0.00 | 0.00 | 0.00 | 41 | 1021.0 |
| 20260902071249 | 76 | 0 | 3.0 | 4.0 | 0.00 | 0.00 | 0.00 | 38 | 1021.0 |
| 20260902070749 | 75 | 0 | 0.0 | 3.0 | 0.00 | 0.00 | 0.00 | 38 | 1021.1 |
| 20260902070248 | 75 | 0 | 0.0 | 2.0 | 0.00 | 0.00 | 0.00 | 37 | 1021.1 |
| 20260902065749 | 75 | 0 | 0.0 | 3.0 | 0.00 | 0.00 | 0.00 | 37 | 1021.1 |
| 20260902065514 | 75 | 0 | 2.0 | 3.0 | 0.00 | 0.00 | 0.00 | 37 | 1021.1 |
| 20260902064748 | 74 | 0 | 2.0 | 3.0 | 0.00 | 0.00 | 0.00 | 38 | 1021.1 |
| 20260902064507 | 74 | 0 | 1.0 | 4.0 | 0.00 | 0.00 | 0.00 | 38 | 1021.1 |
| 20260902064013 | 74 | 0 | 3.0 | 4.0 | 0.00 | 0.00 | 0.00 | 38 | 1021.0 |
| 20260902063249 | 73 | 0 | 2.0 | 4.0 | 0.00 | 0.00 | 0.00 | 38 | 1020.9 |
| 20260902062748 | 73 | 0 | 2.0 | 4.0 | 0.00 | 0.00 | 0.00 | 38 | 1020.9 |
| 20260902062248 | 73 | 0 | 2.0 | 2.0 | 0.00 | 0.00 | 0.00 | 39 | 1020.9 |
| 20260902061748 | 72 | 0 | 1.0 | 2.0 | 0.00 | 0.00 | 0.00 | 39 | 1020.7 |
| 20260902061513 | 72 | 0 | 1.0 | 3.0 | 0.00 | 0.00 | 0.00 | 40 | 1020.7 |
| 20260902060748 | 72 | 0 | 2.0 | 3.0 | 0.00 | 0.00 | 0.00 | 41 | 1020.8 |
| 20260902060728 | 72 | 0 | 0.0 | 2.0 | 0.00 | 0.00 | 0.00 | 43 | 1020.8 |
| 20260902060009 | 71 | 0 | 0.0 | 1.0 | 0.00 | 0.00 | 0.00 | 44 | 1020.7 |
| 20260902055247 | 71 | 0 | 0.0 | 0.0 | 0.00 | 0.00 | 0.00 | 44 | 1020.7 |
| 20260902054747 | 71 | 0 | 0.0 | 1.0 | 0.00 | 0.00 | 0.00 | 45 | 1020.6 |
| 20260902054504 | 71 | 0 | 0.0 | 1.0 | 0.00 | 0.00 | 0.00 | 45 | 1020.6 |
| 20260902053747 | 71 | 0 | 0.0 | 1.0 | 0.00 | 0.00 | 0.00 | 44 | 1020.5 |
| 20260902053247 | 71 | 0 | 0.0 | 1.0 | 0.00 | 0.00 | 0.00 | 44 | 1020.5 |
| 20260902052747 | 71 | 0 | 0.0 | 0.0 | 0.00 | 0.00 | 0.00 | 44 | 1020.4 |
| 20260902052247 | 71 | 0 | 0.0 | 1.0 | 0.00 | 0.00 | 0.00 | 44 | 1020.4 |
| 20260902052012 | 71 | 0 | 0.0 | 2.0 | 0.00 | 0.00 | 0.00 | 44 | 1020.3 |
| 20260902051732 | 70 | 0 | 0.0 | 2.0 | 0.00 | 0.00 | 0.00 | 44 | 1020.3 |
| 20260902050746 | 70 | 0 | 0.0 | 0.0 | 0.00 | 0.00 | 0.00 | 45 | 1020.2 |
| 20260902050509 | 70 | 0 | 0.0 | 0.0 | 0.00 | 0.00 | 0.00 | 44 | 1020.3 |
| 20260902050008 | 70 | 0 | 0.0 | 0.0 | 0.00 | 0.00 | 0.00 | 45 | 1020.2 |
| 20260902045247 | 70 | 0 | 0.0 | 0.0 | 0.00 | 0.00 | 0.00 | 45 | 1020.2 |
| 20260902044746 | 70 | 0 | 0.0 | 0.0 | 0.00 | 0.00 | 0.00 | 45 | 1020.3 |
| 20260902044245 | 70 | 0 | 0.0 | 0.0 | 0.00 | 0.00 | 0.00 | 46 | 1020.2 |
| 20260902043745 | 70 | 0 | 0.0 | 0.0 | 0.00 | 0.00 | 0.00 | 48 | 1020.2 |
| 20260902043246 | 70 | 0 | 0.0 | 0.0 | 0.00 | 0.00 | 0.00 | 49 | 1020.2 |
| 20260902042745 | 70 | 0 | 0.0 | 0.0 | 0.00 | 0.00 | 0.00 | 49 | 1020.1 |
| 20260902042245 | 70 | 0 | 0.0 | 0.0 | 0.00 | 0.00 | 0.00 | 49 | 1020.2 |
| 20260902042009 | 70 | 0 | 0.0 | 0.0 | 0.00 | 0.00 | 0.00 | 49 | 1020.2 |
| 20260902041245 | 70 | 0 | 0.0 | 0.0 | 0.00 | 0.00 | 0.00 | 49 | 1020.1 |
| 20260902040745 | 70 | 0 | 0.0 | 0.0 | 0.00 | 0.00 | 0.00 | 48 | 1020.1 |
| 20260902040508 | 70 | 0 | 0.0 | 0.0 | 0.00 | 0.00 | 0.00 | 48 | 1020.2 |
| 20260902035745 | 70 | 0 | 0.0 | 0.0 | 0.00 | 0.00 | 0.00 | 47 | 1020.2 |
| 20260902035245 | 70 | 0 | 0.0 | 0.0 | 0.00 | 0.00 | 0.00 | 48 | 1020.1 |
| 20260902034744 | 70 | 0 | 0.0 | 2.0 | 0.00 | 0.00 | 0.00 | 47 | 1020.1 |
| 20260902034515 | 71 | 0 | 0.0 | 2.0 | 0.00 | 0.00 | 0.00 | 47 | 1020.1 |
| 20260902033744 | 71 | 0 | 0.0 | 0.0 | 0.00 | 0.00 | 0.00 | 47 | 1020.1 |
| 20260902033244 | 71 | 0 | 0.0 | 1.0 | 0.00 | 0.00 | 0.00 | 47 | 1020.0 |
| 20260902032744 | 71 | 0 | 0.0 | 1.0 | 0.00 | 0.00 | 0.00 | 46 | 1020.1 |
| 20260902032244 | 72 | 0 | 1.0 | 1.0 | 0.00 | 0.00 | 0.00 | 45 | 1020.1 |
| 20260902031743 | 72 | 0 | 0.0 | 0.0 | 0.00 | 0.00 | 0.00 | 44 | 1020.1 |
| 20260902031244 | 73 | 0 | 0.0 | 3.0 | 0.00 | 0.00 | 0.00 | 44 | 1020.0 |
| 20260902030743 | 73 | 0 | 0.0 | 3.0 | 0.00 | 0.00 | 0.00 | 42 | 1020.0 |
| 20260902030244 | 73 | 0 | 1.0 | 3.0 | 0.00 | 0.00 | 0.00 | 42 | 1020.1 |
| 20260902025744 | 73 | 0 | 0.0 | 3.0 | 0.00 | 0.00 | 0.00 | 42 | 1020.0 |
| 20260902025243 | 73 | 0 | 2.0 | 3.0 | 0.00 | 0.00 | 0.00 | 42 | 1020.0 |
| 20260902024743 | 73 | 0 | 1.0 | 3.0 | 0.00 | 0.00 | 0.00 | 42 | 1020.0 |
| 20260902024516 | 73 | 0 | 0.0 | 1.0 | 0.00 | 0.00 | 0.00 | 42 | 1020.0 |
| 20260902023742 | 73 | 0 | 0.0 | 2.0 | 0.00 | 0.00 | 0.00 | 42 | 1020.0 |
| 20260902023243 | 73 | 0 | 1.0 | 2.0 | 0.00 | 0.00 | 0.00 | 42 | 1020.0 |
| 20260902022742 | 73 | 0 | 1.0 | 2.0 | 0.00 | 0.00 | 0.00 | 42 | 1020.0 |
| 20260902022242 | 73 | 0 | 2.0 | 2.0 | 0.00 | 0.00 | 0.00 | 42 | 1019.9 |
| 20260902021743 | 73 | 0 | 2.0 | 2.0 | 0.00 | 0.00 | 0.00 | 43 | 1020.0 |
| 20260902021243 | 73 | 0 | 0.0 | 2.0 | 0.00 | 0.00 | 0.00 | 43 | 1019.9 |
| 20260902020742 | 73 | 0 | 1.0 | 2.0 | 0.00 | 0.00 | 0.00 | 42 | 1019.9 |
| 20260902020501 | 73 | 0 | 1.0 | 2.0 | 0.00 | 0.00 | 0.00 | 43 | 1019.9 |
| 20260902015742 | 73 | 0 | 1.0 | 2.0 | 0.00 | 0.00 | 0.00 | 43 | 1019.9 |
| 20260902015242 | 74 | 0 | 2.0 | 2.0 | 0.00 | 0.00 | 0.00 | 43 | 1020.0 |
| 20260902014742 | 74 | 0 | 1.0 | 3.0 | 0.00 | 0.00 | 0.00 | 43 | 1019.9 |
| 20260902014241 | 74 | 0 | 1.0 | 3.0 | 0.00 | 0.00 | 0.00 | 43 | 1020.0 |
| 20260902013743 | 74 | 0 | 2.0 | 3.0 | 0.00 | 0.00 | 0.00 | 43 | 1020.0 |
| 20260902013242 | 74 | 0 | 2.0 | 3.0 | 0.00 | 0.00 | 0.00 | 43 | 1020.0 |
| 20260902012741 | 74 | 0 | 2.0 | 4.0 | 0.00 | 0.00 | 0.00 | 42 | 1019.9 |
| 20260902012241 | 75 | 0 | 3.0 | 4.0 | 0.00 | 0.00 | 0.00 | 42 | 1020.0 |
| 20260902011741 | 75 | 0 | 2.0 | 4.0 | 0.00 | 0.00 | 0.00 | 42 | 1019.8 |
| 20260902011241 | 75 | 0 | 3.0 | 5.0 | 0.00 | 0.00 | 0.00 | 42 | 1019.8 |
| 20260902010741 | 75 | 0 | 2.0 | 5.0 | 0.00 | 0.00 | 0.00 | 42 | 1020.0 |
| 20260902010241 | 75 | 0 | 2.0 | 4.0 | 0.00 | 0.00 | 0.00 | 42 | 1019.9 |
| 20260902005741 | 75 | 0 | 2.0 | 4.0 | 0.00 | 0.00 | 0.00 | 42 | 1019.9 |
| 20260902005240 | 75 | 0 | 1.0 | 5.0 | 0.00 | 0.00 | 0.00 | 42 | 1020.0 |
| 20260902004741 | 75 | 0 | 2.0 | 5.0 | 0.00 | 0.00 | 0.00 | 42 | 1020.0 |
| 20260902004241 | 75 | 0 | 3.0 | 5.0 | 0.00 | 0.00 | 0.00 | 41 | 1019.9 |
| 20260902003741 | 75 | 0 | 2.0 | 4.0 | 0.00 | 0.00 | 0.00 | 41 | 1019.9 |
| 20260902003240 | 75 | 0 | 1.0 | 4.0 | 0.00 | 0.00 | 0.00 | 41 | 1019.9 |
| 20260902003006 | 76 | 0 | 2.0 | 6.0 | 0.00 | 0.00 | 0.00 | 41 | 1019.9 |
| 20260902002240 | 76 | 0 | 3.0 | 6.0 | 0.00 | 0.00 | 0.00 | 41 | 1019.9 |
| 20260902001740 | 76 | 0 | 3.0 | 6.0 | 0.00 | 0.00 | 0.00 | 41 | 1019.9 |
| 20260902001239 | 76 | 0 | 4.0 | 5.0 | 0.00 | 0.00 | 0.00 | 41 | 1019.9 |
| 20260902000740 | 76 | 0 | 4.0 | 5.0 | 0.00 | 0.00 | 0.00 | 41 | 1019.9 |
| 20260902000241 | 76 | 0 | 3.0 | 5.0 | 0.00 | 0.00 | 0.00 | 41 | 1020.0 |
| 20260901235739 | 76 | 0 | 3.0 | 5.0 | 0.00 | 0.00 | 0.00 | 41 | 1020.0 |
| 20260901235239 | 76 | 0 | 4.0 | 4.0 | 0.00 | 0.00 | 0.00 | 41 | 1019.9 |
| 20260901234739 | 76 | 0 | 3.0 | 5.0 | 0.00 | 0.00 | 0.00 | 41 | 1020.0 |
| 20260901234239 | 76 | 0 | 3.0 | 6.0 | 0.00 | 0.00 | 0.00 | 41 | 1020.0 |
| 20260901233738 | 76 | 0 | 3.0 | 6.0 | 0.00 | 0.00 | 0.00 | 41 | 1019.9 |
| 20260901233239 | 76 | 0 | 2.0 | 4.0 | 0.00 | 0.00 | 0.00 | 42 | 1019.9 |
| 20260901232738 | 76 | 0 | 2.0 | 4.0 | 0.00 | 0.00 | 0.00 | 42 | 1019.9 |
| 20260901232238 | 76 | 0 | 2.0 | 5.0 | 0.00 | 0.00 | 0.00 | 42 | 1019.9 |
| 20260901231739 | 76 | 0 | 2.0 | 5.0 | 0.00 | 0.00 | 0.00 | 42 | 1019.9 |
| 20260901231238 | 76 | 0 | 2.0 | 4.0 | 0.00 | 0.00 | 0.00 | 42 | 1019.9 |
| 20260901230739 | 76 | 0 | 3.0 | 5.0 | 0.00 | 0.00 | 0.00 | 42 | 1019.9 |
| 20260901230238 | 76 | 0 | 3.0 | 5.0 | 0.00 | 0.00 | 0.00 | 42 | 1020.0 |
| 20260901225959 | 76 | 0 | 2.0 | 4.0 | 0.00 | 0.00 | 0.00 | 42 | 1020.0 |
| 20260901225238 | 76 | 0 | 3.0 | 5.0 | 0.00 | 0.00 | 0.00 | 42 | 1020.1 |
| 20260901224738 | 76 | 0 | 2.0 | 5.0 | 0.00 | 0.00 | 0.00 | 42 | 1020.2 |
| 20260901224238 | 76 | 0 | 2.0 | 4.0 | 0.00 | 0.00 | 0.00 | 43 | 1020.2 |
| 20260901224001 | 76 | 0 | 3.0 | 4.0 | 0.00 | 0.00 | 0.00 | 43 | 1020.2 |
| 20260901223237 | 76 | 0 | 4.0 | 5.0 | 0.00 | 0.00 | 0.00 | 43 | 1020.1 |
| 20260901222736 | 76 | 0 | 4.0 | 5.0 | 0.00 | 0.00 | 0.00 | 43 | 1020.0 |
| 20260901222237 | 76 | 0 | 3.0 | 5.0 | 0.00 | 0.00 | 0.00 | 43 | 1020.1 |
| 20260901221737 | 76 | 0 | 3.0 | 5.0 | 0.00 | 0.00 | 0.00 | 43 | 1020.1 |
| 20260901221237 | 76 | 0 | 4.0 | 4.0 | 0.00 | 0.00 | 0.00 | 43 | 1020.1 |
| 20260901221004 | 76 | 0 | 3.0 | 5.0 | 0.00 | 0.00 | 0.00 | 44 | 1020.1 |
| 20260901220236 | 76 | 0 | 2.0 | 5.0 | 0.00 | 0.00 | 0.00 | 44 | 1020.1 |
| 20260901215737 | 77 | 0 | 0.0 | 4.0 | 0.00 | 0.00 | 0.00 | 44 | 1020.1 |
| 20260901215247 | 77 | 0 | 3.0 | 4.0 | 0.00 | 0.00 | 0.00 | 44 | 1020.1 |
| 20260901215004 | 77 | 0 | 2.0 | 4.0 | 0.00 | 0.00 | 0.00 | 44 | 1020.0 |
| 20260901214236 | 77 | 0 | 0.0 | 3.0 | 0.00 | 0.00 | 0.00 | 44 | 1019.9 |
| 20260901213736 | 77 | 0 | 2.0 | 4.0 | 0.00 | 0.00 | 0.00 | 44 | 1019.9 |
| 20260901213237 | 77 | 0 | 2.0 | 4.0 | 0.00 | 0.00 | 0.00 | 45 | 1019.9 |
| 20260901212736 | 77 | 0 | 2.0 | 5.0 | 0.00 | 0.00 | 0.00 | 45 | 1019.9 |
| 20260901212236 | 77 | 0 | 2.0 | 5.0 | 0.00 | 0.00 | 0.00 | 45 | 1019.8 |
| 20260901212006 | 77 | 0 | 3.0 | 5.0 | 0.00 | 0.00 | 0.00 | 45 | 1019.9 |
| 20260901211508 | 78 | 0 | 4.0 | 4.0 | 0.00 | 0.00 | 0.00 | 45 | 1019.9 |
| 20260901210736 | 78 | 0 | 3.0 | 4.0 | 0.00 | 0.00 | 0.00 | 45 | 1019.9 |
| 20260901210235 | 78 | 0 | 3.0 | 4.0 | 0.00 | 0.00 | 0.00 | 45 | 1019.9 |
| 20260901210007 | 78 | 0 | 1.0 | 3.0 | 0.00 | 0.00 | 0.00 | 45 | 1019.9 |
| 20260901205235 | 78 | 0 | 2.0 | 4.0 | 0.00 | 0.00 | 0.00 | 45 | 1019.9 |
| 20260901204736 | 78 | 0 | 1.0 | 4.0 | 0.00 | 0.00 | 0.00 | 45 | 1019.9 |
| 20260901204235 | 78 | 0 | 2.0 | 4.0 | 0.00 | 0.00 | 0.00 | 45 | 1019.9 |
| 20260901203735 | 78 | 0 | 2.0 | 4.0 | 0.00 | 0.00 | 0.00 | 44 | 1019.8 |
| 20260901203235 | 78 | 0 | 2.0 | 5.0 | 0.00 | 0.00 | 0.00 | 44 | 1019.8 |
| 20260901202735 | 79 | 0 | 2.0 | 5.0 | 0.00 | 0.00 | 0.00 | 44 | 1019.8 |
| 20260901202234 | 79 | 0 | 3.0 | 5.0 | 0.00 | 0.00 | 0.00 | 43 | 1019.8 |
| 20260901201735 | 79 | 0 | 3.0 | 5.0 | 0.00 | 0.00 | 0.00 | 43 | 1019.8 |
| 20260901201234 | 79 | 0 | 3.0 | 4.0 | 0.00 | 0.00 | 0.00 | 43 | 1019.7 |
| 20260901200735 | 79 | 0 | 2.0 | 6.0 | 0.00 | 0.00 | 0.00 | 42 | 1019.8 |
| 20260901200234 | 79 | 0 | 3.0 | 6.0 | 0.00 | 0.00 | 0.00 | 42 | 1019.7 |
| 20260901195735 | 80 | 0 | 4.0 | 5.0 | 0.00 | 0.00 | 0.00 | 42 | 1019.6 |
| 20260901195234 | 80 | 0 | 2.0 | 5.0 | 0.00 | 0.00 | 0.00 | 41 | 1019.7 |
| 20260901194734 | 80 | 0 | 2.0 | 5.0 | 0.00 | 0.00 | 0.00 | 41 | 1019.6 |
| 20260901194234 | 80 | 0 | 3.0 | 5.0 | 0.00 | 0.00 | 0.00 | 40 | 1019.5 |
| 20260901194215 | 80 | 0 | 4.0 | 6.0 | 0.00 | 0.00 | 0.00 | 39 | 1019.5 |
| 20260901193457 | 80 | 0 | 3.0 | 6.0 | 0.00 | 0.00 | 0.00 | 38 | 1019.4 |
| 20260901192734 | 81 | 0 | 3.0 | 4.0 | 0.00 | 0.00 | 0.00 | 38 | 1019.4 |
| 20260901192456 | 81 | 0 | 2.0 | 4.0 | 0.00 | 0.00 | 0.00 | 37 | 1019.4 |
| 20260901191733 | 81 | 0 | 2.0 | 5.0 | 0.00 | 0.00 | 0.00 | 37 | 1019.2 |
| 20260901191234 | 81 | 0 | 3.0 | 5.0 | 0.00 | 0.00 | 0.00 | 37 | 1019.1 |
| 20260901190733 | 82 | 0 | 3.0 | 5.0 | 0.00 | 0.00 | 0.00 | 37 | 1019.1 |
| 20260901190232 | 82 | 0 | 3.0 | 5.0 | 0.00 | 0.00 | 0.00 | 36 | 1019.1 |
| 20260901185733 | 82 | 0 | 2.0 | 4.0 | 0.00 | 0.00 | 0.00 | 35 | 1018.9 |
| 20260901185233 | 82 | 0 | 2.0 | 5.0 | 0.00 | 0.00 | 0.00 | 35 | 1018.8 |
| 20260901184732 | 82 | 0 | 2.0 | 5.0 | 0.00 | 0.00 | 0.00 | 34 | 1018.8 |
| 20260901184233 | 82 | 0 | 3.0 | 4.0 | 0.00 | 0.00 | 0.00 | 34 | 1018.8 |
| 20260901183956 | 82 | 0 | 2.0 | 4.0 | 0.00 | 0.00 | 0.00 | 34 | 1018.6 |
| 20260901183233 | 83 | 0 | 2.0 | 5.0 | 0.00 | 0.00 | 0.00 | 33 | 1018.6 |
| 20260901182733 | 83 | 0 | 3.0 | 5.0 | 0.00 | 0.00 | 0.00 | 33 | 1018.5 |
| 20260901182230 | 83 | 0 | 2.0 | 5.0 | 0.00 | 0.00 | 0.00 | 33 | 1018.4 |
| 20260901182005 | 83 | 0 | 2.0 | 5.0 | 0.00 | 0.00 | 0.00 | 33 | 1018.4 |
| 20260901181231 | 83 | 0 | 3.0 | 6.0 | 0.00 | 0.00 | 0.00 | 33 | 1018.4 |
| 20260901180736 | 83 | 0 | 3.0 | 6.0 | 0.00 | 0.00 | 0.00 | 33 | 1018.3 |
| 20260901180232 | 84 | 0 | 3.0 | 7.0 | 0.00 | 0.00 | 0.00 | 33 | 1018.2 |
| 20260901175951 | 84 | 0 | 4.0 | 7.0 | 0.00 | 0.00 | 0.00 | 33 | 1018.2 |
| 20260901175714 | 84 | 34 | 4.0 | 6.0 | 0.00 | 0.00 | 0.00 | 33 | 1018.2 |
| 20260901174731 | 85 | 0 | 4.0 | 6.0 | 0.00 | 0.00 | 0.00 | 33 | 1018.1 |
| 20260901174232 | 85 | 0 | 3.0 | 11.0 | 0.00 | 0.00 | 0.00 | 32 | 1018.1 |
| 20260901173731 | 85 | 69 | 6.0 | 11.0 | 0.00 | 0.00 | 0.00 | 32 | 1018.2 |
| 20260901173231 | 85 | 51 | 2.0 | 6.0 | 0.00 | 0.00 | 0.00 | 31 | 1018.1 |
| 20260901172731 | 85 | 62 | 3.0 | 10.0 | 0.00 | 0.00 | 0.00 | 31 | 1018.0 |
| 20260901172231 | 85 | 73 | 5.0 | 10.0 | 0.00 | 0.00 | 0.00 | 31 | 1018.1 |
| 20260901171731 | 86 | 63 | 4.0 | 9.0 | 0.00 | 0.00 | 0.00 | 31 | 1018.0 |
| 20260901171448 | 86 | 69 | 2.0 | 6.0 | 0.00 | 0.00 | 0.00 | 30 | 1018.0 |
| 20260901170730 | 86 | 62 | 5.0 | 9.0 | 0.00 | 0.00 | 0.00 | 30 | 1017.9 |
| 20260901170230 | 86 | 65 | 5.0 | 9.0 | 0.00 | 0.00 | 0.00 | 30 | 1017.9 |
| 20260901165730 | 87 | 82 | 3.0 | 6.0 | 0.00 | 0.00 | 0.00 | 30 | 1017.9 |
| 20260901165230 | 87 | 47 | 3.0 | 7.0 | 0.00 | 0.00 | 0.00 | 30 | 1017.9 |
| 20260901164730 | 87 | 72 | 3.0 | 9.0 | 0.00 | 0.00 | 0.00 | 30 | 1017.9 |
| 20260901164231 | 87 | 59 | 5.0 | 9.0 | 0.00 | 0.00 | 0.00 | 30 | 1017.9 |
| 20260901163731 | 87 | 80 | 4.0 | 10.0 | 0.00 | 0.00 | 0.00 | 30 | 1018.0 |
| 20260901163231 | 87 | 72 | 8.0 | 10.0 | 0.00 | 0.00 | 0.00 | 29 | 1018.0 |
| 20260901162731 | 88 | 28 | 5.0 | 6.0 | 0.00 | 0.00 | 0.00 | 29 | 1018.0 |
| 20260901162231 | 88 | 25 | 4.0 | 7.0 | 0.00 | 0.00 | 0.00 | 30 | 1018.0 |
| 20260901161730 | 88 | 30 | 5.0 | 9.0 | 0.00 | 0.00 | 0.00 | 30 | 1018.1 |
| 20260901161723 | 88 | 37 | 6.0 | 9.0 | 0.00 | 0.00 | 0.00 | 29 | 1018.1 |
| 20260901160730 | 88 | 348 | 4.0 | 10.0 | 0.00 | 0.00 | 0.00 | 29 | 1018.0 |
| 20260901160229 | 88 | 61 | 5.0 | 10.0 | 0.00 | 0.00 | 0.00 | 29 | 1018.0 |
| 20260901155949 | 88 | 317 | 4.0 | 12.0 | 0.00 | 0.00 | 0.00 | 29 | 1017.9 |
| 20260901155229 | 89 | 13 | 8.0 | 12.0 | 0.00 | 0.00 | 0.00 | 28 | 1018.0 |
| 20260901154729 | 89 | 75 | 5.0 | 11.0 | 0.00 | 0.00 | 0.00 | 29 | 1018.0 |
| 20260901154231 | 89 | 75 | 8.0 | 11.0 | 0.00 | 0.00 | 0.00 | 28 | 1018.0 |
| 20260901153730 | 89 | 80 | 2.0 | 10.0 | 0.00 | 0.00 | 0.00 | 27 | 1017.9 |
| 20260901153230 | 89 | 62 | 6.0 | 10.0 | 0.00 | 0.00 | 0.00 | 27 | 1018.0 |
| 20260901152729 | 90 | 90 | 2.0 | 12.0 | 0.00 | 0.00 | 0.00 | 27 | 1018.0 |
| 20260901152230 | 90 | 71 | 9.0 | 12.0 | 0.00 | 0.00 | 0.00 | 26 | 1017.9 |
| 20260901151729 | 90 | 90 | 1.0 | 7.0 | 0.00 | 0.00 | 0.00 | 26 | 1018.0 |
| 20260901151229 | 90 | 90 | 3.0 | 9.0 | 0.00 | 0.00 | 0.00 | 25 | 1018.0 |
| 20260901150949 | 91 | 94 | 6.0 | 9.0 | 0.00 | 0.00 | 0.00 | 24 | 1018.0 |
| 20260901150229 | 90 | 118 | 0.0 | 6.0 | 0.00 | 0.00 | 0.00 | 23 | 1018.1 |
| 20260901150213 | 89 | 89 | 4.0 | 6.0 | 0.00 | 0.00 | 0.00 | 23 | 1018.0 |
| 20260901145229 | 90 | 193 | 6.0 | 6.0 | 0.00 | 0.00 | 0.00 | 22 | 1018.1 |
| 20260901144729 | 90 | 102 | 2.0 | 7.0 | 0.00 | 0.00 | 0.00 | 22 | 1018.1 |
| 20260901144229 | 90 | 135 | 2.0 | 7.0 | 0.00 | 0.00 | 0.00 | 21 | 1018.2 |
| 20260901143950 | 90 | 180 | 2.0 | 10.0 | 0.00 | 0.00 | 0.00 | 21 | 1018.1 |
| 20260901143452 | 89 | 203 | 2.0 | 10.0 | 0.00 | 0.00 | 0.00 | 22 | 1018.2 |
| 20260901142728 | 89 | 199 | 6.0 | 9.0 | 0.00 | 0.00 | 0.00 | 21 | 1018.2 |
| 20260901142228 | 89 | 243 | 4.0 | 7.0 | 0.00 | 0.00 | 0.00 | 21 | 1018.2 |
| 20260901141728 | 89 | 121 | 1.0 | 6.0 | 0.00 | 0.00 | 0.00 | 22 | 1018.3 |
| 20260901141228 | 89 | 165 | 4.0 | 7.0 | 0.00 | 0.00 | 0.00 | 22 | 1018.3 |
| 20260901140727 | 89 | 265 | 5.0 | 7.0 | 0.00 | 0.00 | 0.00 | 23 | 1018.3 |
| 20260901140227 | 89 | 213 | 3.0 | 9.0 | 0.00 | 0.00 | 0.00 | 22 | 1018.4 |
| 20260901135728 | 89 | 185 | 5.0 | 9.0 | 0.00 | 0.00 | 0.00 | 22 | 1018.4 |
| 20260901135447 | 90 | 162 | 2.0 | 5.0 | 0.00 | 0.00 | 0.00 | 20 | 1018.4 |
| 20260901134953 | 88 | 207 | 2.0 | 4.0 | 0.00 | 0.00 | 0.00 | 21 | 1018.5 |
| 20260901134447 | 89 | 243 | 2.0 | 4.0 | 0.00 | 0.00 | 0.00 | 21 | 1018.6 |
| 20260901133733 | 89 | 92 | 0.0 | 6.0 | 0.00 | 0.00 | 0.00 | 20 | 1018.6 |
| 20260901133227 | 90 | 131 | 4.0 | 7.0 | 0.00 | 0.00 | 0.00 | 19 | 1018.6 |
| 20260901132727 | 90 | 114 | 5.0 | 9.0 | 0.00 | 0.00 | 0.00 | 20 | 1018.7 |
| 20260901132227 | 89 | 185 | 3.0 | 11.0 | 0.00 | 0.00 | 0.00 | 21 | 1018.6 |
| 20260901131728 | 90 | 140 | 8.0 | 11.0 | 0.00 | 0.00 | 0.00 | 21 | 1018.7 |
| 20260901131227 | 90 | 104 | 1.0 | 11.0 | 0.00 | 0.00 | 0.00 | 24 | 1018.7 |
| 20260901130727 | 89 | 313 | 4.0 | 6.0 | 0.00 | 0.00 | 0.00 | 24 | 1018.7 |
| 20260901130226 | 89 | 104 | 3.0 | 6.0 | 0.00 | 0.00 | 0.00 | 26 | 1018.8 |
| 20260901125726 | 89 | 68 | 4.0 | 6.0 | 0.00 | 0.00 | 0.00 | 26 | 1018.8 |
| 20260901125226 | 89 | 358 | 4.0 | 6.0 | 0.00 | 0.00 | 0.00 | 24 | 1018.8 |
| 20260901124725 | 89 | 7 | 2.0 | 6.0 | 0.00 | 0.00 | 0.00 | 24 | 1018.9 |
| 20260901124226 | 88 | 269 | 3.0 | 7.0 | 0.00 | 0.00 | 0.00 | 22 | 1018.9 |
| 20260901123726 | 88 | 78 | 2.0 | 7.0 | 0.00 | 0.00 | 0.00 | 23 | 1019.0 |
| 20260901123226 | 88 | 54 | 3.0 | 6.0 | 0.00 | 0.00 | 0.00 | 22 | 1019.0 |
| 20260901122725 | 88 | 99 | 1.0 | 7.0 | 0.00 | 0.00 | 0.00 | 22 | 1019.1 |
| 20260901122225 | 89 | 69 | 4.0 | 7.0 | 0.00 | 0.00 | 0.00 | 22 | 1019.1 |
| 20260901121726 | 89 | 106 | 3.0 | 10.0 | 0.00 | 0.00 | 0.00 | 21 | 1019.0 |
| 20260901121449 | 89 | 96 | 4.0 | 11.0 | 0.00 | 0.00 | 0.00 | 21 | 1019.1 |
| 20260901120726 | 89 | 107 | 3.0 | 11.0 | 0.00 | 0.00 | 0.00 | 21 | 1019.0 |
| 20260901120448 | 89 | 155 | 3.0 | 6.0 | 0.00 | 0.00 | 0.00 | 20 | 1019.0 |
| 20260901115725 | 88 | 94 | 3.0 | 7.0 | 0.00 | 0.00 | 0.00 | 19 | 1019.1 |
| 20260901115225 | 88 | 85 | 5.0 | 7.0 | 0.00 | 0.00 | 0.00 | 19 | 1019.2 |
| 20260901114724 | 88 | 104 | 3.0 | 11.0 | 0.00 | 0.00 | 0.00 | 19 | 1019.1 |
| 20260901114225 | 88 | 52 | 5.0 | 11.0 | 0.00 | 0.00 | 0.00 | 21 | 1019.1 |
| 20260901113725 | 88 | 76 | 7.0 | 9.0 | 0.00 | 0.00 | 0.00 | 19 | 1019.4 |
| 20260901113447 | 88 | 102 | 2.0 | 5.0 | 0.00 | 0.00 | 0.00 | 19 | 1019.2 |
| 20260901112724 | 88 | 73 | 3.0 | 7.0 | 0.00 | 0.00 | 0.00 | 21 | 1019.4 |
| 20260901112425 | 87 | 316 | 2.0 | 6.0 | 0.00 | 0.00 | 0.00 | 21 | 1019.5 |
| 20260901112417 | 86 | 247 | 5.0 | 7.0 | 0.00 | 0.00 | 0.00 | 19 | 1019.5 |
| 20260901111224 | 86 | 63 | 2.0 | 7.0 | 0.00 | 0.00 | 0.00 | 21 | 1019.5 |
| 20260901110724 | 86 | 71 | 5.0 | 7.0 | 0.00 | 0.00 | 0.00 | 21 | 1019.5 |
| 20260901110441 | 86 | 61 | 5.0 | 7.0 | 0.00 | 0.00 | 0.00 | 21 | 1019.6 |
| 20260901105723 | 86 | 16 | 1.0 | 5.0 | 0.00 | 0.00 | 0.00 | 21 | 1019.7 |
| 20260901105445 | 86 | 78 | 2.0 | 4.0 | 0.00 | 0.00 | 0.00 | 21 | 1019.7 |
| 20260901104723 | 87 | 59 | 3.0 | 4.0 | 0.00 | 0.00 | 0.00 | 20 | 1019.8 |
| 20260901104223 | 86 | 275 | 2.0 | 4.0 | 0.00 | 0.00 | 0.00 | 22 | 1019.8 |
| 20260901103723 | 86 | 144 | 1.0 | 5.0 | 0.00 | 0.00 | 0.00 | 21 | 1019.8 |
| 20260901103446 | 85 | 123 | 3.0 | 5.0 | 0.00 | 0.00 | 0.00 | 22 | 1019.9 |
| 20260901102723 | 85 | 87 | 1.0 | 4.0 | 0.00 | 0.00 | 0.00 | 23 | 1019.9 |